This demonstration page uses our WeatherBlox Daily Observations layout. Learn more.

Left ArrowRight Arrow

Hourly Observations for February 7, 2016

Temp ( °F °C ) Dew Point ( °F °C ) Humidity (%) Winds ( mph kmh ) Pressure ( in mb ) Visibility ( mi km ) Precip ( " mm )
12:51 am 00:51 Clear 42 5.6 15 -9.4 33 33 E 9 15 30.24 1024 10 16.0934 N/A
1:51 am 01:51 Clear 38 3.3 15 -9.4 39 39 SE 6 9 30.24 1024 10 16.0934 N/A
2:51 am 02:51 Clear 31 -0.6 15 -9.4 52 52 N N/A 30.24 1024 10 16.0934 N/A
3:51 am 03:51 Clear 33 0.6 15 -9.4 47 47 N N/A 30.24 1024 10 16.0934 N/A
4:51 am 04:51 Clear 31 -0.6 14 -10 49 49 E 5 7 30.25 1024 10 16.0934 N/A
5:51 am 05:51 Clear 29 -1.7 15 -9.4 56 56 NW 3 6 30.26 1025 10 16.0934 N/A
6:51 am 06:51 Clear 27 -2.8 14 -10 58 58 N 5 7 30.3 1026 10 16.0934 N/A
7:51 am 07:51 Sunny 32 undefined 15 -9.4 50 50 SE 6 9 30.3 1026 10 16.0934 N/A
8:51 am 08:51 Sunny 39 3.9 14 -10 36 36 SE 8 13 30.29 1026 10 16.0934 N/A
9:51 am 09:51 Sunny 49 9.4 13 -10.6 23 23 SE 10 17 30.29 1026 10 16.0934 N/A
10:51 am 10:51 Sunny 56 13.3 15 -9.4 20 20 ESE 13 20 30.29 1026 10 16.0934 N/A
11:51 am 11:51 Sunny 58 14.4 13 -10.6 17 17 VRB 5 7 30.26 1025 10 16.0934 N/A
12:51 pm 12:51 Sunny 61 16.1 11 -11.7 14 14 VRB 5 7 30.19 1022 10 16.0934 N/A
1:51 pm 13:51 Sunny 63 17.2 11 -11.7 13 13 S 5 7 30.16 1021 10 16.0934 N/A
2:51 pm 14:51 Sunny 65 18.3 11 -11.7 12 12 S 3 6 30.15 1021 10 16.0934 N/A
3:51 pm 15:51 Sunny 65 18.3 11 -11.7 12 12 N N/A 30.15 1021 10 16.0934 N/A
4:51 pm 16:51 Sunny 64 17.8 13 -10.6 13 13 NNW 3 6 30.16 1021 10 16.0934 N/A
5:51 pm 17:51 Sunny 59 15 18 -7.8 20 20 WNW 5 7 30.17 1022 10 16.0934 N/A
6:51 pm 18:51 Clear 55 12.8 18 -7.8 23 23 WNW 3 6 30.2 1023 10 16.0934 N/A
7:51 pm 19:51 Clear 49 9.4 19 -7.2 31 31 NNW 7 11 30.22 1024 10 16.0934 N/A
8:51 pm 20:51 Clear 46 7.8 19 -7.2 34 34 NNE 5 7 30.23 1024 10 16.0934 N/A
9:51 pm 21:51 Clear 44 6.7 20 -6.7 38 38 ESE 5 7 30.23 1024 10 16.0934 N/A
10:51 pm 22:51 Clear 43 6.1 20 -6.7 40 40 ESE 3 6 30.23 1024 10 16.0934 N/A
11:51 pm 23:51 Clear 40 4.4 21 -6.1 47 47 E 8 13 30.22 1023 10 16.0934 N/A

Powered by AerisWeather